FENGYUN 1C DEB

Satellite information

Favourite Embed

Satellite Type and Status

DEBRISIN ORBIT

Key statistics

Satellite FENGYUN 1C DEB at a glance.

Uptime

9557

Days in orbit

Revolutions

≈ 14.4

Per day

Orbit

SSO

Sun Synchronous Orbit

Inclination

98.8

Latest

Satellite identification and parameters

Extended collection of information and parameters for FENGYUN 1C DEB.

Object identification

Identified? True

Debris? True

Object name: FENGYUN 1C DEB

International designator: 1999-025PU

Object number (NORAD): 30067

Object ID (CCSDS): 30067

Country: PEOPLES REPUBLIC OF CHINA (PRC)

Current information (Y/N): Y

RCS size: MEDIUM

Orbital parameters

Period: 99.781 minutes

Inclination: 98.7867 deg

SMA: 7126.2 km

Apoapsis: 857.294 km

Periapsis: 638.836 km

RAAN: 70.9114 deg

Eccentricy: 0.0153278

Argument of periapsis: 126.9881 deg

Mean anomaly: 265.3558 deg

Mean motion: 14.43164249 rev/day

Mean motion (dot): 0.00000766 rev/day2

B* drag term: 0.0002113 1/REarth

Two-line elements (TLE)

Creation date: July 8, 2025, 10:46 p.m.

Reference frame: TEME

Reference center: EARTH

Epoch: July 8, 2025, 2:48 p.m. UTC

TLE line 0: 0 FENGYUN 1C DEB

TLE line 1: 1 30067U 99025PU 25189.61697157 .00000766 00000-0 21130-3 0 9997

TLE line 2: 2 30067 98.7867 70.9114 0153278 126.9881 265.3558 14.43164249969440

Live tracking on map

Real-time ground track for satellite FENGYUN 1C DEB.

In-orbit conjunctions

A list of the most updated potential collisions computed for object FENGYUN 1C DEB.

Target Orbit TCA Probability of collision Miss distance Type
FENGYUN 1C DEB SSO 2024-10-01 01:20:12 0.0001410011 296.0 (m) DEBRIS

Associated space launch

Chinese polar orbiting meteorological satellite

FENGYUN 1C DEB was lifted into orbit during the mission ‘Long March 4B | Feng Yun 1C’, on board a Long March 4B space rocket.

The launch took place on May 10, 1999, 1:33 a.m. from Launch Complex 7.

For more information about the launch, click the button.

Launch to space Long March 4B | Feng Yun 1C
Long March 4B | Feng Yun 1C

Agency: N/A

Status: Launch Successful

Launch date: May 10, 1999, 1:33 a.m. UTC

Rocket: Long March 4B

Launch pad: Launch Complex 7

Location: Taiyuan Satellite Launch Center, People's Republic of China

...

Latest news about this satellite

There are no fresh news available about this satellite. Check back as we update our databases every day.


Newsletter sign-up

Weekly statistics, charts and insights to help you stay on top of the space industry.